Location: Kitchener
(43.4500°N, 80.5000°W)
Time: 13:49:00
(UTC-04:00)

Envisat - Visible Passes

Search period start: 24 May 2018 00:00
Search period end: 03 June 2018 00:00
Orbit: 764 x 766 km, 98.2° (Epoch: 24 May)

Date Brightness Start Highest point End Pass type
(mag) Time Alt. Az. Time Alt. Az. Time Alt. Az.
24 May 4.7 21:23:08 10° SSW 21:27:42 34° W 21:32:19 10° NNW visible
26 May 5.5 21:49:51 10° SW 21:53:30 20° W 21:57:11 10° NW visible
28 May 5.9 22:18:00 10° WSW 22:19:23 11° W 22:20:47 10° WNW visible
29 May 5.2 21:38:07 10° SSW 21:42:14 25° W 21:46:24 10° NW visible
31 May 5.7 22:05:24 10° WSW 22:08:05 14° W 22:10:47 10° WNW visible
01 Jun 4.8 21:26:32 10° SSW 21:30:59 31° W 21:35:30 10° NNW visible
